Weather History for KLAM - October, 2013

Change the Weather History Date:

Wednesday, October 16, 2013

  Actual Average Record
Temperature  
Mean Temperature 42 °F -  
Max Temperature 50 °F 59 °F - (-1)
Min Temperature 33 °F 36 °F - (-1)
Degree Days  
Heating Degree Days 24    
Moisture  
Dew Point 28 °F    
Average Humidity 70    
Maximum Humidity 100    
Minimum Humidity 28    
Precipitation  
Precipitation 0.01 in - - ()
Sea Level Pressure  
Sea Level Pressure 30.17 in    
Wind  
Wind Speed 10 mph (SW)    
Max Wind Speed 14 mph    
Max Gust Speed 21 mph    
Visibility 9 miles    
Events Rain , Snow    
Averages and records for this station are not official NWS values.
T = Trace of Precipitation, MM = Missing Value Source: NWS Daily Summary

Daily Weather History Graph

Daily Weather History Graph

Search for Another Location

Airport or City:

Trip Planner

Search our weather history database for the weather conditions in past years. The results will help you decide how hot, cold, wet, or windy it might be!

Date:

Astronomy

Oct. 16, 2013 Rise Set
Actual Time 7:12 AM MDT 6:27 PM MDT
Civil Twilight 6:47 AM MDT 6:53 PM MDT
Nautical Twilight 6:17 AM MDT 7:23 PM MDT
Astronomical Twilight 5:47 AM MDT 7:52 PM MDT
Moon 5:05 PM MDT (10/16) 4:47 AM MDT (10/16)
Length of Visible Light 12h 06m
Length of Day
11h 14m
Waxing Gibbous, 94% of the Moon is Illuminated
Oct 16
Waxing Gibbous
Oct 18
Full
Oct 26
Last Quarter
Nov 3
New
Nov 9
First Quarter

Hourly Weather History & Observations

Time (MDT) Temp. Windchill Dew Point Humidity Pressure Visibility Wind Dir Wind Speed Gust Speed Precip Events Conditions
12:15 AM 35.8 °F 27.3 °F 35.8 °F 100% 30.17 in 10.0 mi SW 12.7 mph 17.3 mph N/A Rain Light Rain
12:35 AM 36.5 °F 29.2 °F 34.9 °F 94% 30.17 in 10.0 mi SSW 10.4 mph 18.4 mph N/A Rain Light Rain
12:55 AM 36.3 °F 28.4 °F 34.0 °F 91% 30.17 in 7.0 mi SSW 11.5 mph 17.3 mph N/A Snow Light Snow
1:15 AM 35.4 °F 26.4 °F 34.9 °F 98% 30.17 in 3.0 mi SSW 13.8 mph 18.4 mph N/A Snow Light Snow
1:35 AM 35.8 °F 28.3 °F 34.5 °F 95% 30.16 in 7.0 mi SSW 10.4 mph 16.1 mph N/A Snow Light Snow
1:55 AM 35.1 °F 26.4 °F 34.9 °F 99% 30.17 in 7.0 mi SSW 12.7 mph 19.6 mph N/A Snow Light Snow
2:15 AM 34.3 °F 25.9 °F 34.3 °F 100% 30.17 in 2.5 mi SW 11.5 mph - N/A Snow Light Snow
2:35 AM 33.8 °F 27.0 °F 33.8 °F 100% 30.17 in 1.8 mi SSW 8.1 mph - 0.01 in Snow Light Snow
2:55 AM 33.8 °F 25.3 °F 33.8 °F 100% 30.17 in 1.5 mi SSW 11.5 mph - 0.01 in Snow Light Snow
3:15 AM 33.8 °F 26.4 °F 33.8 °F 100% 30.17 in 2.0 mi SSW 9.2 mph 16.1 mph N/A Snow Light Snow
3:35 AM 33.8 °F 25.8 °F 33.8 °F 100% 30.16 in 2.0 mi SSW 10.4 mph - N/A Snow Light Snow
3:55 AM 33.8 °F 27.0 °F 33.8 °F 100% 30.16 in 2.5 mi SSW 8.1 mph - N/A Snow Light Snow
4:15 AM 33.8 °F 25.8 °F 33.8 °F 100% 30.17 in 2.5 mi SSW 10.4 mph - N/A Snow Light Snow
4:35 AM 33.8 °F 25.8 °F 33.8 °F 100% 30.17 in 4.0 mi SSW 10.4 mph - N/A Snow Light Snow
4:55 AM 33.4 °F 25.9 °F 33.4 °F 100% 30.18 in 4.0 mi SSW 9.2 mph - N/A Snow Light Snow
5:15 AM 33.6 °F 26.8 °F 33.6 °F 100% 30.18 in 7.0 mi SSW 8.1 mph - N/A Snow Light Snow
5:35 AM 33.8 °F 26.4 °F 33.8 °F 100% 30.17 in 10.0 mi South 9.2 mph - N/A   Overcast
5:55 AM 33.8 °F 25.8 °F 33.8 °F 100% 30.17 in 10.0 mi SSW 10.4 mph - N/A Snow Light Snow
6:15 AM 33.8 °F 26.4 °F 33.8 °F 100% 30.18 in 10.0 mi SSW 9.2 mph - N/A   Overcast
6:35 AM 33.8 °F 27.7 °F 33.8 °F 100% 30.18 in 4.0 mi SSW 6.9 mph - N/A Snow Light Snow
6:55 AM 33.8 °F 28.6 °F 33.8 °F 100% 30.18 in 7.0 mi SSW 5.8 mph - N/A Snow Light Snow
7:15 AM 33.8 °F 26.4 °F 33.8 °F 100% 30.18 in 10.0 mi South 9.2 mph - N/A   Overcast
7:35 AM 34.0 °F 28.0 °F 33.8 °F 99% 30.19 in 10.0 mi South 6.9 mph - N/A   Overcast
7:55 AM 34.2 °F 27.5 °F 34.2 °F 100% 30.19 in 10.0 mi South 8.1 mph - N/A   Overcast
8:15 AM 34.2 °F 28.2 °F 34.0 °F 99% 30.20 in 10.0 mi South 6.9 mph - N/A   Overcast
8:35 AM 34.3 °F 28.4 °F 34.2 °F 99% 30.20 in 10.0 mi South 6.9 mph - N/A   Overcast
8:55 AM 34.7 °F 28.8 °F 34.5 °F 99% 30.20 in 10.0 mi South 6.9 mph - N/A   Overcast
9:15 AM 35.6 °F 28.6 °F 35.2 °F 99% 30.20 in 10.0 mi South 9.2 mph - N/A   Overcast
9:35 AM 35.6 °F 28.6 °F 35.1 °F 98% 30.20 in 10.0 mi South 9.2 mph - N/A   Overcast
9:55 AM 35.1 °F 27.4 °F 34.5 °F 98% 30.20 in 10.0 mi South 10.4 mph - N/A   Overcast
10:15 AM 35.6 °F 30.7 °F 35.2 °F 99% 30.21 in 10.0 mi South 5.8 mph 16.1 mph N/A   Overcast
10:35 AM 36.5 °F 30.3 °F 35.8 °F 97% 30.21 in 10.0 mi South 8.1 mph - N/A   Overcast
10:55 AM 37.0 °F 29.8 °F 36.0 °F 96% 30.20 in 10.0 mi South 10.4 mph - N/A   Overcast
11:15 AM 38.3 °F 30.9 °F 36.5 °F 93% 30.19 in 10.0 mi SSE 11.5 mph - N/A   Mostly Cloudy
11:35 AM 39.4 °F 35.2 °F 36.0 °F 88% 30.19 in 10.0 mi South 5.8 mph - N/A   Scattered Clouds
11:55 AM 40.1 °F 35.3 °F 35.8 °F 85% 30.19 in 10.0 mi SSE 6.9 mph - N/A   Scattered Clouds
12:15 PM 41.4 °F 37.6 °F 36.0 °F 81% 30.18 in 10.0 mi SE 5.8 mph - N/A   Scattered Clouds
12:35 PM 42.3 °F 38.6 °F 36.0 °F 78% 30.18 in 10.0 mi SE 5.8 mph - N/A   Mostly Cloudy
12:55 PM 42.8 °F 39.3 °F 36.0 °F 77% 30.16 in 10.0 mi ESE 5.8 mph - N/A   Scattered Clouds
1:15 PM 44.1 °F 42.5 °F 34.7 °F 70% 30.15 in 10.0 mi SSE 3.5 mph - N/A   Scattered Clouds
1:35 PM 43.9 °F 38.8 °F 35.4 °F 72% 30.15 in 10.0 mi SE 9.2 mph - N/A   Scattered Clouds
1:55 PM 45.5 °F 41.8 °F 34.3 °F 65% 30.13 in 10.0 mi ESE 6.9 mph - N/A   Scattered Clouds
2:15 PM 48.2 °F - 26.6 °F 43% 30.13 in 10.0 mi West 10.4 mph 18.4 mph N/A   Scattered Clouds
2:35 PM 50.2 °F - 27.1 °F 41% 30.13 in 10.0 mi West 13.8 mph 20.7 mph N/A   Clear
2:55 PM 50.2 °F - 25.2 °F 38% 30.13 in 10.0 mi West 12.7 mph 20.7 mph N/A   Mostly Cloudy
3:15 PM 50.9 °F - 24.6 °F 36% 30.13 in 10.0 mi West 10.4 mph 19.6 mph N/A   Mostly Cloudy
3:35 PM 50.4 °F - 22.3 °F 33% 30.13 in 10.0 mi West 12.7 mph 20.7 mph N/A   Scattered Clouds
3:55 PM 50.7 °F - 22.3 °F 33% 30.13 in 10.0 mi West 12.7 mph 17.3 mph N/A   Clear
4:15 PM 50.2 °F - 21.4 °F 32% 30.13 in 10.0 mi West 10.4 mph 17.3 mph N/A   Clear
4:35 PM 50.9 °F - 20.3 °F 30% 30.14 in 10.0 mi WSW 8.1 mph - N/A   Clear
4:55 PM 50.7 °F - 18.5 °F 28% 30.14 in 10.0 mi West 11.5 mph 18.4 mph N/A   Clear
5:15 PM 50.4 °F - 18.9 °F 29% 30.14 in 10.0 mi West 12.7 mph - N/A   Clear
5:35 PM 50.0 °F - 18.7 °F 29% 30.14 in 10.0 mi WSW 11.5 mph - N/A   Clear
5:55 PM 49.1 °F - 18.7 °F 30% 30.14 in 10.0 mi West 8.1 mph - N/A   Clear
6:15 PM 47.5 °F - 24.1 °F 40% 30.15 in 10.0 mi WNW 10.4 mph 20.7 mph N/A   Scattered Clouds
6:35 PM 46.4 °F 45.2 °F 20.8 °F 36% 30.17 in 10.0 mi West 3.5 mph - N/A   Clear
6:55 PM 46.2 °F 42.2 °F 16.2 °F 30% 30.17 in 10.0 mi West 8.1 mph - N/A   Clear
7:35 PM 44.1 °F 38.6 °F 14.7 °F 31% 30.18 in 10.0 mi West 10.4 mph - N/A   Clear
7:55 PM 43.7 °F 37.3 °F 15.6 °F 32% 30.18 in 10.0 mi West 12.7 mph - N/A   Clear
8:15 PM 43.9 °F 37.9 °F 14.7 °F 31% 30.18 in 10.0 mi West 11.5 mph - N/A   Clear
8:35 PM 42.8 °F 38.0 °F 15.1 °F 33% 30.18 in 10.0 mi West 8.1 mph - N/A   Clear
8:55 PM 42.8 °F 36.6 °F 14.7 °F 32% 30.19 in 10.0 mi West 11.5 mph - N/A   Clear
9:15 PM 42.4 °F 37.0 °F 14.9 °F 33% 30.19 in 10.0 mi WNW 9.2 mph - N/A   Clear
9:35 PM 43.0 °F 37.7 °F 14.7 °F 32% 30.18 in 10.0 mi West 9.2 mph - N/A   Clear
9:55 PM 41.7 °F 37.3 °F 16.2 °F 36% 30.19 in 10.0 mi WSW 6.9 mph - N/A   Clear
10:15 PM 40.6 °F 34.8 °F 17.6 °F 39% 30.19 in 10.0 mi ENE 9.2 mph - N/A   Clear
10:35 PM 41.4 °F - 16.7 °F 37% 30.20 in 10.0 mi Calm Calm - N/A   Clear
10:55 PM 41.5 °F 39.6 °F 16.2 °F 36% 30.19 in 10.0 mi East 3.5 mph - N/A   Clear
11:15 PM 40.5 °F 37.3 °F 18.3 °F 41% 30.19 in 10.0 mi SE 4.6 mph - N/A   Clear
11:35 PM 40.1 °F - 18.5 °F 42% 30.19 in 10.0 mi Calm Calm - N/A   Clear
11:55 PM 39.4 °F - 18.3 °F 43% 30.19 in 10.0 mi Calm Calm - N/A   Clear